| time (UTC) | temp C | wind direction | speed KPH | gust KPH | rain 1hr cm | rain 24hr cm | rain mn cm | humidity % | barometer mb |
| 20260506223044 | 14 | 315 | 4.8 | 16.1 | 0.00 | 0.00 | 0.00 | 85 | 1018.6 |
| 20260506222537 | 14 | 316 | 3.2 | 16.1 | 0.00 | 0.00 | 0.00 | 85 | 1018.6 |
| 20260506222037 | 13 | 288 | 4.8 | 17.7 | 0.00 | 0.00 | 0.00 | 85 | 1018.7 |
| 20260506221543 | 14 | 248 | 6.4 | 17.7 | 0.00 | 0.00 | 0.00 | 85 | 1018.7 |
| 20260506221036 | 14 | 277 | 6.4 | 14.5 | 0.00 | 0.00 | 0.00 | 85 | 1018.8 |
| 20260506220536 | 14 | 313 | 3.2 | 12.9 | 0.00 | 0.00 | 0.00 | 85 | 1018.9 |
| 20260506220045 | 14 | 294 | 3.2 | 16.1 | 0.00 | 0.00 | 0.00 | 85 | 1019.0 |
| 20260506215537 | 14 | 257 | 6.4 | 16.1 | 0.00 | 0.00 | 0.00 | 85 | 1019.0 |
| 20260506215036 | 14 | 271 | 6.4 | 12.9 | 0.00 | 0.00 | 0.00 | 83 | 1019.0 |
| 20260506214559 | 15 | 321 | 6.4 | 12.9 | 0.00 | 0.00 | 0.00 | 82 | 1018.9 |
| 20260506214037 | 15 | 322 | 4.8 | 12.9 | 0.00 | 0.00 | 0.00 | 83 | 1018.9 |
| 20260506213538 | 15 | 351 | 4.8 | 12.9 | 0.00 | 0.00 | 0.00 | 83 | 1018.9 |
| 20260506213042 | 15 | 267 | 4.8 | 12.9 | 0.00 | 0.00 | 0.00 | 82 | 1019.1 |
| 20260506212537 | 15 | 317 | 6.4 | 12.9 | 0.00 | 0.00 | 0.00 | 82 | 1019.1 |
| 20260506212037 | 15 | 360 | 3.2 | 12.9 | 0.00 | 0.00 | 0.00 | 83 | 1019.0 |
| 20260506211546 | 15 | 281 | 4.8 | 16.1 | 0.00 | 0.00 | 0.00 | 82 | 1019.0 |
| 20260506211036 | 15 | 284 | 3.2 | 16.1 | 0.00 | 0.00 | 0.00 | 84 | 1019.0 |
| 20260506210537 | 14 | 292 | 6.4 | 16.1 | 0.00 | 0.00 | 0.00 | 83 | 1018.9 |
| 20260506210044 | 14 | 292 | 4.8 | 14.5 | 0.00 | 0.00 | 0.00 | 84 | 1019.0 |
| 20260506205536 | 15 | 292 | 4.8 | 12.9 | 0.00 | 0.00 | 0.00 | 82 | 1019.1 |
| 20260506205036 | 15 | 293 | 3.2 | 12.9 | 0.00 | 0.00 | 0.00 | 84 | 1019.0 |
| 20260506204544 | 14 | 334 | 4.8 | 12.9 | 0.00 | 0.00 | 0.00 | 84 | 1019.2 |
| 20260506204038 | 15 | 308 | 3.2 | 11.3 | 0.00 | 0.00 | 0.00 | 82 | 1019.2 |
| 20260506203537 | 15 | 327 | 3.2 | 11.3 | 0.00 | 0.00 | 0.00 | 84 | 1019.3 |
| 20260506203047 | 15 | 307 | 4.8 | 11.3 | 0.00 | 0.00 | 0.00 | 83 | 1019.3 |
| 20260506202536 | 15 | 317 | 4.8 | 11.3 | 0.00 | 0.00 | 0.00 | 82 | 1019.3 |
| 20260506202037 | 15 | 281 | 3.2 | 12.9 | 0.00 | 0.00 | 0.00 | 82 | 1019.3 |
| 20260506201544 | 15 | 299 | 4.8 | 12.9 | 0.00 | 0.00 | 0.00 | 84 | 1019.4 |
| 20260506201037 | 15 | 284 | 3.2 | 9.7 | 0.00 | 0.00 | 0.00 | 83 | 1019.4 |
| 20260506200538 | 15 | 237 | 1.6 | 9.7 | 0.00 | 0.00 | 0.00 | 83 | 1019.5 |
| 20260506200048 | 15 | 281 | 3.2 | 9.7 | 0.00 | 0.00 | 0.00 | 82 | 1019.5 |
| 20260506195537 | 15 | 287 | 3.2 | 11.3 | 0.00 | 0.00 | 0.00 | 83 | 1019.5 |
| 20260506195037 | 15 | 313 | 3.2 | 11.3 | 0.00 | 0.00 | 0.00 | 83 | 1019.6 |
| 20260506194558 | 15 | 9 | 4.8 | 9.7 | 0.00 | 0.00 | 0.00 | 83 | 1019.6 |
| 20260506194044 | 15 | 319 | 3.2 | 9.7 | 0.00 | 0.00 | 0.00 | 81 | 1019.6 |
| 20260506193537 | 15 | 290 | 3.2 | 11.3 | 0.00 | 0.00 | 0.00 | 82 | 1019.7 |
| 20260506193043 | 15 | 319 | 3.2 | 11.3 | 0.00 | 0.00 | 0.00 | 82 | 1019.6 |
| 20260506192536 | 15 | 341 | 3.2 | 8.0 | 0.00 | 0.00 | 0.00 | 84 | 1019.6 |
| 20260506192036 | 15 | 319 | 3.2 | 9.7 | 0.00 | 0.00 | 0.00 | 82 | 1019.8 |
| 20260506191552 | 15 | 5 | 3.2 | 11.3 | 0.00 | 0.00 | 0.00 | 84 | 1019.8 |
| 20260506191036 | 15 | 290 | 3.2 | 11.3 | 0.00 | 0.00 | 0.00 | 83 | 1019.8 |
| 20260506190538 | 15 | 288 | 3.2 | 9.7 | 0.00 | 0.00 | 0.00 | 82 | 1019.9 |
| 20260506190044 | 15 | 243 | 3.2 | 9.7 | 0.00 | 0.00 | 0.00 | 80 | 1019.8 |
| 20260506185538 | 15 | 328 | 3.2 | 11.3 | 0.00 | 0.00 | 0.00 | 82 | 1019.8 |
| 20260506185038 | 15 | 237 | 3.2 | 11.3 | 0.00 | 0.00 | 0.00 | 83 | 1019.8 |
| 20260506184551 | 15 | 295 | 3.2 | 9.7 | 0.00 | 0.00 | 0.00 | 82 | 1019.7 |
| 20260506184038 | 15 | 267 | 3.2 | 9.7 | 0.00 | 0.00 | 0.00 | 83 | 1019.8 |
| 20260506183537 | 15 | 269 | 3.2 | 6.4 | 0.00 | 0.00 | 0.00 | 85 | 1019.9 |
| 20260506183047 | 14 | 284 | 3.2 | 6.4 | 0.00 | 0.00 | 0.00 | 84 | 1019.9 |
| 20260506182536 | 14 | 308 | 1.6 | 8.0 | 0.00 | 0.00 | 0.00 | 84 | 1020.0 |
| 20260506182036 | 14 | 246 | 3.2 | 8.0 | 0.00 | 0.00 | 0.00 | 83 | 1019.9 |
| 20260506181547 | 14 | 314 | 3.2 | 6.4 | 0.00 | 0.00 | 0.00 | 83 | 1019.9 |
| 20260506181037 | 14 | 292 | 3.2 | 8.0 | 0.00 | 0.00 | 0.00 | 83 | 1019.9 |
| 20260506180537 | 14 | 322 | 3.2 | 9.7 | 0.00 | 0.00 | 0.00 | 82 | 1019.8 |
| 20260506180054 | 15 | 283 | 3.2 | 9.7 | 0.00 | 0.00 | 0.00 | 81 | 1019.8 |
| 20260506175536 | 15 | 284 | 3.2 | 6.4 | 0.00 | 0.00 | 0.00 | 84 | 1019.7 |
| 20260506175033 | 14 | 246 | 1.6 | 6.4 | 0.00 | 0.00 | 0.00 | 83 | 1019.8 |
| 20260506174542 | 14 | 293 | 3.2 | 8.0 | 0.00 | 0.00 | 0.00 | 83 | 1019.7 |
| 20260506174033 | 14 | 252 | 3.2 | 8.0 | 0.00 | 0.00 | 0.00 | 82 | 1019.7 |
| 20260506173535 | 14 | 288 | 3.2 | 8.0 | 0.00 | 0.00 | 0.00 | 83 | 1019.7 |
| 20260506173048 | 14 | 281 | 3.2 | 9.7 | 0.00 | 0.00 | 0.00 | 83 | 1019.7 |
| 20260506172533 | 14 | 298 | 3.2 | 9.7 | 0.00 | 0.00 | 0.00 | 84 | 1019.7 |
| 20260506172033 | 14 | 278 | 3.2 | 9.7 | 0.00 | 0.00 | 0.00 | 83 | 1019.7 |
| 20260506171556 | 14 | 241 | 1.6 | 6.4 | 0.00 | 0.00 | 0.00 | 84 | 1019.7 |
| 20260506171040 | 14 | 298 | 3.2 | 6.4 | 0.00 | 0.00 | 0.00 | 84 | 1019.7 |
| 20260506170540 | 14 | 355 | 1.6 | 4.8 | 0.00 | 0.00 | 0.00 | 84 | 1019.8 |
| 20260506170049 | 14 | 293 | 1.6 | 6.4 | 0.00 | 0.00 | 0.00 | 85 | 1019.7 |
| 20260506165539 | 13 | 298 | 1.6 | 6.4 | 0.00 | 0.00 | 0.00 | 85 | 1019.7 |
| 20260506165037 | 13 | 340 | 1.6 | 9.7 | 0.00 | 0.00 | 0.00 | 85 | 1019.7 |
| 20260506164558 | 13 | 289 | 3.2 | 9.7 | 0.00 | 0.00 | 0.00 | 85 | 1019.7 |
| 20260506164036 | 13 | 263 | 1.6 | 6.4 | 0.00 | 0.00 | 0.00 | 85 | 1019.6 |
| 20260506163536 | 13 | 317 | 3.2 | 6.4 | 0.00 | 0.00 | 0.00 | 84 | 1019.7 |
| 20260506163054 | 13 | 346 | 1.6 | 9.7 | 0.00 | 0.00 | 0.00 | 84 | 1019.7 |
| 20260506162533 | 13 | 13 | 1.6 | 9.7 | 0.00 | 0.00 | 0.00 | 85 | 1019.7 |
| 20260506162033 | 13 | 293 | 1.6 | 6.4 | 0.00 | 0.00 | 0.00 | 85 | 1019.7 |
| 20260506161604 | 13 | 0 | 1.6 | 4.8 | 0.00 | 0.00 | 0.00 | 85 | 1019.7 |
| 20260506161033 | 13 | 0 | 3.2 | 6.4 | 0.00 | 0.00 | 0.00 | 85 | 1019.6 |
| 20260506160533 | 13 | 318 | 1.6 | 6.4 | 0.00 | 0.00 | 0.00 | 86 | 1019.7 |
| 20260506160052 | 13 | 338 | 1.6 | 4.8 | 0.00 | 0.00 | 0.00 | 86 | 1019.6 |
| 20260506155533 | 13 | 279 | 1.6 | 4.8 | 0.00 | 0.05 | 0.00 | 86 | 1019.7 |
| 20260506155036 | 13 | 346 | 0.0 | 4.8 | 0.00 | 0.05 | 0.00 | 85 | 1019.6 |
| 20260506154610 | 13 | 0 | 1.6 | 4.8 | 0.00 | 0.05 | 0.00 | 86 | 1019.6 |
| 20260506154033 | 13 | 295 | 0.0 | 4.8 | 0.00 | 0.05 | 0.00 | 86 | 1019.5 |
| 20260506153536 | 13 | 291 | 1.6 | 4.8 | 0.00 | 0.05 | 0.00 | 86 | 1019.5 |
| 20260506153045 | 13 | 36 | 1.6 | 4.8 | 0.00 | 0.05 | 0.00 | 86 | 1019.5 |
| 20260506152537 | 12 | 310 | 0.0 | 4.8 | 0.00 | 0.05 | 0.00 | 87 | 1019.5 |
| 20260506152039 | 12 | 276 | 1.6 | 4.8 | 0.00 | 0.05 | 0.00 | 87 | 1019.5 |
| 20260506151545 | 13 | 295 | 1.6 | 3.2 | 0.00 | 0.05 | 0.00 | 88 | 1019.5 |
| 20260506151038 | 12 | 331 | 0.0 | 3.2 | 0.00 | 0.05 | 0.00 | 88 | 1019.5 |
| 20260506150541 | 12 | 0 | 0.0 | 4.8 | 0.00 | 0.05 | 0.00 | 88 | 1019.5 |
| 20260506150053 | 12 | 0 | 0.0 | 4.8 | 0.00 | 0.05 | 0.00 | 88 | 1019.4 |
| 20260506145543 | 12 | 288 | 1.6 | 6.4 | 0.00 | 0.05 | 0.00 | 87 | 1019.4 |
| 20260506145039 | 12 | 0 | 0.0 | 6.4 | 0.00 | 0.05 | 0.00 | 87 | 1019.4 |
| 20260506144555 | 12 | 0 | 0.0 | 6.4 | 0.00 | 0.05 | 0.00 | 88 | 1019.4 |
| 20260506144038 | 12 | 0 | 0.0 | 3.2 | 0.00 | 0.05 | 0.00 | 88 | 1019.3 |
| 20260506143538 | 12 | 313 | 0.0 | 4.8 | 0.00 | 0.05 | 0.00 | 87 | 1019.3 |
| 20260506143041 | 12 | 306 | 0.0 | 4.8 | 0.00 | 0.05 | 0.00 | 88 | 1019.3 |
| 20260506142540 | 12 | 0 | 1.6 | 4.8 | 0.00 | 0.05 | 0.00 | 87 | 1019.3 |
| 20260506142038 | 12 | 59 | 0.0 | 4.8 | 0.00 | 0.05 | 0.00 | 88 | 1019.2 |
| 20260506141549 | 12 | 317 | 0.0 | 3.2 | 0.00 | 0.05 | 0.00 | 88 | 1019.2 |
| 20260506141038 | 12 | 5 | 0.0 | 4.8 | 0.00 | 0.05 | 0.00 | 88 | 1019.1 |
| 20260506140541 | 12 | 0 | 1.6 | 4.8 | 0.00 | 0.05 | 0.00 | 87 | 1019.0 |
| 20260506140057 | 12 | 5 | 0.0 | 4.8 | 0.00 | 0.05 | 0.00 | 87 | 1019.0 |
| 20260506135537 | 12 | 0 | 0.0 | 4.8 | 0.00 | 0.05 | 0.00 | 87 | 1018.9 |
| 20260506135037 | 12 | 0 | 1.6 | 4.8 | 0.00 | 0.05 | 0.00 | 87 | 1018.9 |
| 20260506134552 | 12 | 311 | 0.0 | 3.2 | 0.00 | 0.05 | 0.00 | 87 | 1018.8 |
| 20260506134038 | 12 | 336 | 0.0 | 3.2 | 0.00 | 0.05 | 0.00 | 86 | 1018.8 |
| 20260506133537 | 12 | 328 | 0.0 | 4.8 | 0.00 | 0.05 | 0.00 | 86 | 1018.8 |
| 20260506133054 | 13 | 29 | 0.0 | 4.8 | 0.00 | 0.05 | 0.00 | 86 | 1018.8 |
| 20260506132538 | 12 | 0 | 0.0 | 6.4 | 0.00 | 0.05 | 0.00 | 85 | 1018.7 |
| 20260506132042 | 12 | 290 | 0.0 | 6.4 | 0.00 | 0.05 | 0.00 | 84 | 1018.5 |
| 20260506131543 | 12 | 290 | 3.2 | 6.4 | 0.00 | 0.05 | 0.00 | 84 | 1018.6 |
| 20260506131039 | 12 | 318 | 0.0 | 3.2 | 0.00 | 0.05 | 0.00 | 84 | 1018.5 |
| 20260506130540 | 12 | 0 | 0.0 | 4.8 | 0.00 | 0.05 | 0.00 | 84 | 1018.4 |
| 20260506130050 | 12 | 273 | 1.6 | 4.8 | 0.00 | 0.05 | 0.00 | 84 | 1018.5 |
| 20260506125538 | 12 | 287 | 1.6 | 6.4 | 0.00 | 0.05 | 0.00 | 85 | 1018.5 |
| 20260506125039 | 12 | 336 | 1.6 | 8.0 | 0.00 | 0.05 | 0.00 | 84 | 1018.5 |
| 20260506124542 | 12 | 299 | 1.6 | 8.0 | 0.00 | 0.05 | 0.00 | 84 | 1018.4 |
| 20260506124039 | 12 | 345 | 1.6 | 8.0 | 0.00 | 0.05 | 0.00 | 84 | 1018.4 |
| 20260506123541 | 12 | 312 | 0.0 | 6.4 | 0.00 | 0.05 | 0.00 | 85 | 1018.4 |
| 20260506123047 | 12 | 19 | 0.0 | 4.8 | 0.00 | 0.05 | 0.00 | 85 | 1018.3 |
| 20260506122535 | 12 | 303 | 1.6 | 6.4 | 0.00 | 0.05 | 0.00 | 85 | 1018.2 |
| 20260506122036 | 12 | 42 | 1.6 | 6.4 | 0.00 | 0.05 | 0.00 | 85 | 1018.2 |
| 20260506121545 | 12 | 346 | 1.6 | 4.8 | 0.00 | 0.05 | 0.00 | 85 | 1018.2 |
| 20260506121037 | 12 | 312 | 0.0 | 4.8 | 0.00 | 0.05 | 0.00 | 85 | 1018.2 |
| 20260506120542 | 12 | 298 | 1.6 | 4.8 | 0.00 | 0.05 | 0.00 | 85 | 1018.1 |
| 20260506120047 | 12 | 269 | 1.6 | 4.8 | 0.00 | 0.05 | 0.00 | 85 | 1018.1 |
| 20260506115537 | 12 | 0 | 0.0 | 4.8 | 0.00 | 0.05 | 0.00 | 85 | 1018.1 |
| 20260506115036 | 12 | 0 | 0.0 | 6.4 | 0.00 | 0.05 | 0.00 | 85 | 1018.1 |
| 20260506114558 | 12 | 301 | 1.6 | 6.4 | 0.00 | 0.05 | 0.00 | 86 | 1018.0 |
| 20260506114037 | 12 | 288 | 3.2 | 6.4 | 0.00 | 0.05 | 0.00 | 85 | 1018.0 |
| 20260506113536 | 12 | 0 | 0.0 | 6.4 | 0.00 | 0.05 | 0.00 | 86 | 1018.0 |
| 20260506113053 | 12 | 279 | 0.0 | 4.8 | 0.00 | 0.05 | 0.00 | 85 | 1018.0 |
| 20260506112536 | 12 | 312 | 1.6 | 6.4 | 0.00 | 0.05 | 0.00 | 85 | 1017.9 |
| 20260506112036 | 12 | 231 | 1.6 | 6.4 | 0.00 | 0.05 | 0.00 | 85 | 1017.9 |
| 20260506111552 | 12 | 345 | 1.6 | 6.4 | 0.00 | 0.05 | 0.00 | 85 | 1017.9 |
| 20260506111040 | 12 | 288 | 3.2 | 6.4 | 0.00 | 0.05 | 0.00 | 85 | 1017.7 |
| 20260506110536 | 12 | 292 | 1.6 | 6.4 | 0.00 | 0.05 | 0.00 | 85 | 1017.8 |
| 20260506110047 | 12 | 295 | 1.6 | 6.4 | 0.00 | 0.05 | 0.00 | 85 | 1017.8 |
| 20260506105536 | 12 | 284 | 1.6 | 12.9 | 0.00 | 0.05 | 0.00 | 85 | 1017.7 |
| 20260506105036 | 12 | 313 | 1.6 | 12.9 | 0.00 | 0.05 | 0.00 | 85 | 1017.7 |
| 20260506104553 | 12 | 282 | 1.6 | 6.4 | 0.00 | 0.05 | 0.00 | 86 | 1017.7 |
| 20260506104036 | 12 | 331 | 1.6 | 8.0 | 0.00 | 0.05 | 0.00 | 86 | 1017.7 |
| 20260506103533 | 12 | 275 | 1.6 | 8.0 | 0.00 | 0.05 | 0.00 | 86 | 1017.7 |
| 20260506103058 | 12 | 249 | 1.6 | 6.4 | 0.00 | 0.05 | 0.00 | 86 | 1017.7 |
| 20260506102534 | 12 | 272 | 1.6 | 4.8 | 0.00 | 0.05 | 0.00 | 86 | 1017.7 |
| 20260506102034 | 12 | 284 | 1.6 | 4.8 | 0.00 | 0.05 | 0.00 | 86 | 1017.6 |
| 20260506101550 | 12 | 263 | 1.6 | 4.8 | 0.00 | 0.05 | 0.00 | 86 | 1017.6 |
| 20260506101036 | 12 | 286 | 1.6 | 6.4 | 0.00 | 0.05 | 0.00 | 86 | 1017.6 |
| 20260506100533 | 12 | 293 | 1.6 | 8.0 | 0.00 | 0.05 | 0.00 | 86 | 1017.6 |
| 20260506100043 | 12 | 281 | 1.6 | 8.0 | 0.00 | 0.05 | 0.00 | 86 | 1017.6 |
| 20260506095540 | 12 | 329 | 1.6 | 9.7 | 0.00 | 0.08 | 0.00 | 86 | 1017.6 |
| 20260506095033 | 12 | 279 | 3.2 | 9.7 | 0.00 | 0.08 | 0.00 | 86 | 1017.6 |
| 20260506094541 | 12 | 269 | 1.6 | 6.4 | 0.00 | 0.08 | 0.00 | 86 | 1017.6 |
| 20260506094033 | 12 | 289 | 1.6 | 6.4 | 0.00 | 0.08 | 0.00 | 87 | 1017.7 |
| 20260506093536 | 12 | 0 | 1.6 | 6.4 | 0.00 | 0.08 | 0.00 | 87 | 1017.6 |
| 20260506093046 | 12 | 0 | 0.0 | 6.4 | 0.00 | 0.08 | 0.00 | 87 | 1017.6 |
| 20260506092533 | 12 | 281 | 1.6 | 4.8 | 0.00 | 0.08 | 0.00 | 88 | 1017.5 |
| 20260506092033 | 12 | 304 | 0.0 | 4.8 | 0.00 | 0.08 | 0.00 | 88 | 1017.5 |
| 20260506091544 | 12 | 273 | 1.6 | 6.4 | 0.00 | 0.08 | 0.00 | 88 | 1017.5 |
| 20260506091109 | 12 | 278 | 1.6 | 6.4 | 0.00 | 0.08 | 0.00 | 88 | 1017.4 |
| 20260506090538 | 12 | 295 | 1.6 | 4.8 | 0.00 | 0.08 | 0.00 | 88 | 1017.5 |
| 20260506090043 | 12 | 267 | 1.6 | 4.8 | 0.00 | 0.08 | 0.00 | 88 | 1017.5 |
| 20260506085537 | 12 | 310 | 0.0 | 6.4 | 0.00 | 0.28 | 0.00 | 88 | 1017.5 |
| 20260506085037 | 12 | 291 | 1.6 | 6.4 | 0.00 | 0.28 | 0.00 | 88 | 1017.5 |
| 20260506084545 | 12 | 290 | 3.2 | 6.4 | 0.00 | 0.28 | 0.00 | 88 | 1017.4 |
| 20260506084037 | 12 | 277 | 1.6 | 6.4 | 0.00 | 0.28 | 0.00 | 88 | 1017.5 |
| 20260506083539 | 12 | 0 | 1.6 | 6.4 | 0.00 | 0.28 | 0.00 | 88 | 1017.5 |
| 20260506083052 | 13 | 286 | 3.2 | 6.4 | 0.00 | 0.28 | 0.00 | 88 | 1017.5 |
| 20260506082540 | 13 | 289 | 1.6 | 6.4 | 0.00 | 0.28 | 0.00 | 88 | 1017.6 |
| 20260506082038 | 13 | 280 | 1.6 | 6.4 | 0.00 | 0.28 | 0.00 | 88 | 1017.5 |
| 20260506081552 | 13 | 265 | 0.0 | 6.4 | 0.00 | 0.28 | 0.00 | 88 | 1017.6 |
| 20260506081040 | 13 | 279 | 1.6 | 6.4 | 0.00 | 0.28 | 0.00 | 88 | 1017.6 |
| 20260506080538 | 13 | 285 | 1.6 | 6.4 | 0.00 | 0.28 | 0.00 | 88 | 1017.6 |
| 20260506073053 | 13 | 327 | 0.0 | 6.4 | 0.00 | 0.33 | 0.00 | 88 | 1017.3 |
| 20260506072538 | 13 | 280 | 1.6 | 6.4 | 0.00 | 0.33 | 0.00 | 87 | 1017.4 |
| 20260506072037 | 13 | 283 | 3.2 | 6.4 | 0.00 | 0.33 | 0.00 | 87 | 1017.3 |
| 20260506071544 | 13 | 289 | 1.6 | 6.4 | 0.00 | 0.33 | 0.00 | 87 | 1017.3 |
| 20260506071038 | 13 | 295 | 1.6 | 8.0 | 0.00 | 0.33 | 0.00 | 87 | 1017.3 |
| 20260506070538 | 13 | 0 | 1.6 | 9.7 | 0.00 | 0.33 | 0.00 | 87 | 1017.3 |
| 20260506062038 | 13 | 278 | 1.6 | 4.8 | 0.00 | 0.36 | 0.33 | 87 | 1017.0 |
| 20260506061556 | 13 | 261 | 0.0 | 6.4 | 0.00 | 0.36 | 0.33 | 87 | 1017.1 |
| 20260506061041 | 13 | 261 | 1.6 | 6.4 | 0.00 | 0.36 | 0.33 | 88 | 1017.0 |
| 20260506060538 | 13 | 0 | 1.6 | 6.4 | 0.00 | 0.36 | 0.33 | 88 | 1017.0 |
| 20260506051042 | 13 | 279 | 1.6 | 6.4 | 0.00 | 0.41 | 0.33 | 90 | 1016.8 |
| 20260506050538 | 13 | 244 | 1.6 | 6.4 | 0.00 | 0.41 | 0.33 | 90 | 1016.7 |
| 20260506045040 | 13 | 237 | 0.0 | 6.4 | 0.00 | 0.41 | 0.33 | 90 | 1016.7 |
| 20260506044552 | 13 | 237 | 1.6 | 6.4 | 0.00 | 0.41 | 0.33 | 90 | 1016.6 |
| 20260506044037 | 13 | 225 | 1.6 | 6.4 | 0.00 | 0.41 | 0.33 | 90 | 1016.6 |
| 20260506043538 | 13 | 225 | 1.6 | 6.4 | 0.00 | 0.41 | 0.33 | 90 | 1016.6 |
| 20260506043043 | 13 | 240 | 1.6 | 4.8 | 0.00 | 0.41 | 0.33 | 90 | 1016.5 |
| 20260506042537 | 13 | 245 | 1.6 | 6.4 | 0.00 | 0.41 | 0.33 | 90 | 1016.4 |
| 20260506042039 | 13 | 242 | 1.6 | 6.4 | 0.00 | 0.41 | 0.33 | 90 | 1016.4 |
| 20260506041545 | 13 | 242 | 1.6 | 6.4 | 0.00 | 0.41 | 0.33 | 90 | 1016.2 |
| 20260506041037 | 13 | 242 | 1.6 | 6.4 | 0.00 | 0.41 | 0.33 | 90 | 1016.2 |
| 20260506040537 | 13 | 223 | 3.2 | 6.4 | 0.00 | 0.41 | 0.33 | 90 | 1016.1 |
| 20260506040051 | 13 | 240 | 1.6 | 6.4 | 0.00 | 0.41 | 0.33 | 90 | 1016.0 |
| 20260506035538 | 13 | 240 | 3.2 | 6.4 | 0.00 | 0.41 | 0.33 | 90 | 1015.9 |
| 20260506035036 | 13 | 0 | 1.6 | 4.8 | 0.00 | 0.41 | 0.33 | 90 | 1015.9 |
| 20260506034547 | 13 | 216 | 1.6 | 6.4 | 0.00 | 0.41 | 0.33 | 90 | 1015.8 |
| 20260506034036 | 13 | 228 | 1.6 | 6.4 | 0.00 | 0.41 | 0.33 | 90 | 1015.7 |
| 20260506033537 | 13 | 238 | 1.6 | 4.8 | 0.00 | 0.41 | 0.33 | 90 | 1015.6 |
| 20260506033045 | 13 | 238 | 1.6 | 6.4 | 0.00 | 0.41 | 0.33 | 90 | 1015.6 |
| 20260506032538 | 13 | 238 | 1.6 | 6.4 | 0.00 | 0.41 | 0.33 | 90 | 1015.5 |
| 20260506032040 | 13 | 224 | 1.6 | 6.4 | 0.00 | 0.41 | 0.33 | 89 | 1015.4 |
| 20260506031544 | 13 | 244 | 3.2 | 6.4 | 0.00 | 0.41 | 0.33 | 89 | 1015.5 |
| 20260506031038 | 13 | 243 | 3.2 | 6.4 | 0.00 | 0.41 | 0.33 | 89 | 1015.3 |
| 20260506030539 | 13 | 225 | 3.2 | 6.4 | 0.00 | 0.41 | 0.33 | 89 | 1015.4 |
| 20260506030044 | 13 | 232 | 3.2 | 6.4 | 0.00 | 0.41 | 0.33 | 89 | 1015.3 |
| 20260506025538 | 13 | 224 | 3.2 | 6.4 | 0.00 | 0.41 | 0.33 | 89 | 1015.3 |
| 20260506025037 | 13 | 231 | 3.2 | 6.4 | 0.00 | 0.41 | 0.33 | 89 | 1015.3 |
| 20260506024545 | 13 | 232 | 3.2 | 6.4 | 0.00 | 0.41 | 0.33 | 88 | 1015.2 |
| 20260506024037 | 13 | 244 | 3.2 | 8.0 | 0.00 | 0.41 | 0.33 | 88 | 1015.2 |
| 20260506023538 | 13 | 214 | 3.2 | 8.0 | 0.00 | 0.41 | 0.33 | 88 | 1015.2 |
| 20260506023053 | 13 | 219 | 3.2 | 8.0 | 0.00 | 0.41 | 0.33 | 88 | 1015.1 |
| 20260506022537 | 13 | 218 | 4.8 | 11.3 | 0.00 | 0.41 | 0.33 | 88 | 1015.1 |
| 20260506022038 | 13 | 240 | 4.8 | 11.3 | 0.00 | 0.41 | 0.33 | 88 | 1015.0 |
| 20260506021555 | 13 | 252 | 4.8 | 11.3 | 0.00 | 0.41 | 0.33 | 88 | 1015.0 |
| 20260506021041 | 13 | 235 | 4.8 | 11.3 | 0.00 | 0.41 | 0.33 | 88 | 1015.1 |
| 20260506020539 | 13 | 236 | 4.8 | 11.3 | 0.00 | 0.41 | 0.33 | 88 | 1015.0 |
| 20260506020047 | 13 | 232 | 3.2 | 8.0 | 0.00 | 0.41 | 0.33 | 87 | 1015.1 |
| 20260506015538 | 13 | 239 | 3.2 | 11.3 | 0.00 | 0.41 | 0.33 | 87 | 1015.1 |
| 20260506015039 | 13 | 254 | 4.8 | 11.3 | 0.00 | 0.41 | 0.33 | 87 | 1015.1 |
| 20260506014552 | 13 | 246 | 4.8 | 11.3 | 0.00 | 0.41 | 0.33 | 87 | 1015.0 |
| 20260506014037 | 13 | 228 | 4.8 | 11.3 | 0.00 | 0.41 | 0.33 | 87 | 1015.0 |
| 20260506013537 | 13 | 225 | 4.8 | 9.7 | 0.00 | 0.41 | 0.33 | 87 | 1015.2 |
| 20260506013043 | 13 | 245 | 3.2 | 8.0 | 0.00 | 0.41 | 0.33 | 86 | 1015.1 |
| 20260506012537 | 13 | 234 | 3.2 | 9.7 | 0.00 | 0.41 | 0.33 | 87 | 1015.1 |
| 20260506012039 | 13 | 236 | 4.8 | 11.3 | 0.00 | 0.41 | 0.33 | 86 | 1015.1 |
| 20260506011552 | 13 | 250 | 4.8 | 11.3 | 0.00 | 0.41 | 0.33 | 86 | 1015.0 |
| 20260506011037 | 14 | 229 | 3.2 | 9.7 | 0.00 | 0.41 | 0.33 | 86 | 1015.0 |
| 20260506010537 | 14 | 216 | 3.2 | 9.7 | 0.00 | 0.41 | 0.33 | 85 | 1015.0 |
| 20260506005537 | 14 | 229 | 4.8 | 9.7 | 0.00 | 0.41 | 0.33 | 85 | 1015.0 |
| 20260506005037 | 14 | 250 | 3.2 | 9.7 | 0.00 | 0.41 | 0.33 | 85 | 1015.0 |
| 20260506004550 | 15 | 240 | 3.2 | 11.3 | 0.00 | 0.41 | 0.33 | 84 | 1014.9 |
| 20260506004038 | 14 | 232 | 3.2 | 11.3 | 0.00 | 0.41 | 0.33 | 85 | 1014.9 |
| 20260506003537 | 14 | 244 | 4.8 | 11.3 | 0.00 | 0.41 | 0.33 | 84 | 1014.8 |
| 20260506003044 | 15 | 221 | 3.2 | 11.3 | 0.00 | 0.41 | 0.33 | 83 | 1014.7 |
| 20260506002538 | 15 | 255 | 3.2 | 11.3 | 0.00 | 0.41 | 0.33 | 84 | 1014.7 |
| 20260506002038 | 14 | 240 | 4.8 | 11.3 | 0.00 | 0.41 | 0.33 | 84 | 1014.7 |
| 20260506001553 | 14 | 253 | 6.4 | 12.9 | 0.00 | 0.41 | 0.33 | 84 | 1014.7 |
| 20260506001038 | 14 | 225 | 4.8 | 12.9 | 0.00 | 0.41 | 0.33 | 85 | 1014.7 |
| 20260506000539 | 14 | 236 | 3.2 | 11.3 | 0.00 | 0.41 | 0.33 | 84 | 1014.7 |
| 20260506000052 | 15 | 242 | 4.8 | 11.3 | 0.00 | 0.41 | 0.33 | 84 | 1014.7 |
| 20260505235537 | 15 | 244 | 6.4 | 11.3 | 0.00 | 0.41 | 0.33 | 84 | 1014.7 |
| 20260505235037 | 15 | 223 | 6.4 | 11.3 | 0.00 | 0.41 | 0.33 | 84 | 1014.8 |
| 20260505234605 | 14 | 232 | 4.8 | 11.3 | 0.00 | 0.41 | 0.33 | 83 | 1014.7 |
| 20260505234040 | 14 | 246 | 4.8 | 9.7 | 0.00 | 0.41 | 0.33 | 84 | 1014.7 |
| 20260505233541 | 14 | 246 | 4.8 | 9.7 | 0.00 | 0.41 | 0.33 | 83 | 1014.7 |
| 20260505233049 | 14 | 219 | 4.8 | 9.7 | 0.00 | 0.41 | 0.33 | 83 | 1014.9 |
| 20260505232537 | 14 | 231 | 3.2 | 9.7 | 0.00 | 0.41 | 0.33 | 83 | 1014.9 |
| 20260505232040 | 14 | 276 | 3.2 | 9.7 | 0.00 | 0.41 | 0.33 | 83 | 1014.9 |
| 20260505231549 | 15 | 245 | 4.8 | 11.3 | 0.00 | 0.41 | 0.33 | 82 | 1014.9 |
| 20260505231036 | 15 | 271 | 4.8 | 11.3 | 0.00 | 0.41 | 0.33 | 82 | 1014.9 |
| 20260505230537 | 15 | 252 | 3.2 | 11.3 | 0.00 | 0.41 | 0.33 | 83 | 1014.9 |
| 20260505230044 | 15 | 281 | 4.8 | 11.3 | 0.00 | 0.41 | 0.33 | 83 | 1014.9 |
| 20260505225538 | 15 | 236 | 4.8 | 11.3 | 0.00 | 0.41 | 0.33 | 83 | 1014.8 |
| 20260505225039 | 15 | 249 | 4.8 | 11.3 | 0.00 | 0.41 | 0.33 | 82 | 1014.7 |
| 20260505224546 | 15 | 223 | 4.8 | 12.9 | 0.00 | 0.41 | 0.33 | 81 | 1014.7 |
| 20260505224040 | 15 | 244 | 4.8 | 12.9 | 0.00 | 0.41 | 0.33 | 81 | 1014.8 |
| 20260505223537 | 15 | 240 | 6.4 | 9.7 | 0.00 | 0.41 | 0.33 | 80 | 1014.8 |